Flag for United Kingdom Weather past 2 weeks in Brentwood, England, United Kingdom

Now
63 °F

Mild.


Feels Like: 63 °F
Forecast: 54 / 68 °F
Wind: 2 mph from Northeast

Location: Gravesend-Broadness

Current Time: Oct 2, 2014 at 12:23:37 PM

Latest Report: Oct 2, 2014 at 11:00 AM


Visibility: N/A

Pressure: 30.40 "Hg

Humidity: 79%

Dew point: 56 °F

Location of BrentwoodLocation

Historic Weather in Brentwood — Graph

°F

Brentwood temperature yesterday

Maximum temperature yesterday: 68 °F (at 4:00 PM)
Minimum temperature yesterday: 57 °F (at 12:00 AM)
Average temperature yesterday: 63 °F

Past Weeks' High & Low Weather Summary

 TemperatureHumidityPressure
High77 °F (Sep 18, 2:00 PM)100% (Sep 18, 6:00 AM)30.40 "Hg (Sep 18, 6:00 AM)
Low43 °F (Sep 23, 3:00 AM)49% (Sep 24, 4:00 PM)29.78 "Hg (Sep 18, 4:00 PM)
Average60 °F84%30.11 "Hg
* Reported Sep 17 11:00 AM — Oct 2 11:00 AM, Brentwood, Weather by CustomWeather, © 2014

Note: Actual official high and low records may vary slightly from our data, if they occured in-between our weather recording intervals... More about our weather records

Advertising

Brentwood weather history for previous 24 hours

 ConditionsComfort  
Time TempWeatherWind HumidityBarometerVisibility
11:00 AM
Oct 2
63 °FMild.2 mph79%30.40 "HgN/A
10:00 AM61 °FCool.2 mph84%30.40 "HgN/A
9:00 AM60 °FCool.3 mph88%30.40 "HgN/A
8:00 AM59 °FCool.3 mph90%30.39 "HgN/A
7:00 AM59 °FCool.3 mph91%30.38 "HgN/A
6:00 AM59 °FCool.3 mph90%30.38 "HgN/A
5:00 AM60 °FCool.3 mph89%30.37 "HgN/A
4:00 AM61 °FCool.3 mph90%30.37 "HgN/A
3:00 AM59 °FCool.3 mph95%30.37 "HgN/A
2:00 AM57 °FCool.3 mph93%30.37 "HgN/A
1:00 AM60 °FCool.3 mph88%30.36 "HgN/A
12:00 AM62 °FCool.3 mph85%30.36 "HgN/A
11:00 PM
Oct 1
62 °FCool.5 mph84%30.35 "HgN/A
10:00 PM62 °FCool.5 mph83%30.34 "HgN/A
9:00 PM63 °FMild.6 mph84%30.33 "HgN/A
8:00 PM62 °FCool.3 mph81%30.32 "HgN/A
7:00 PM64 °FMild.5 mph75%30.30 "HgN/A
6:00 PM66 °FMild.7 mph69%30.29 "HgN/A
5:00 PM67 °FMild.10 mph64%30.27 "HgN/A
4:00 PM68 °FMild.8 mph59%30.27 "HgN/A
3:00 PM67 °FMild.10 mph62%30.27 "HgN/A
2:00 PM66 °FMild.13 mph62%30.25 "HgN/A
1:00 PM67 °FMild.8 mph74%30.25 "HgN/A
12:00 PM65 °FMild.8 mph78%30.25 "HgN/A
Weather by CustomWeather, © 2014

See weather overviewHow to use our weather pages